Regional Weather Roundup
Issued by NWS Sioux Falls, SD

Home | Current Version | Previous Version | Text Only | Print | Product List | Glossary On
Versions: 1 2 3 4 5 6 7 8 9 10 11 12 13 14 15 16 17 18 19 20 21 22 23 24 25 26 27 28 29 30 31 32 33 34 35 36 37 38 39 40 41 42 43 44 45 46 47 48 49 50
000
ASUS43 KFSD 211910
RWRFSD

WEATHER ROUNDUP FOR SE SOUTH DAKOTA/SW MINNESOTA/NW IOWA
NATIONAL WEATHER SERVICE SIOUX FALLS SD
200 PM CDT TUE OCT 21 2014

NOTE: "FAIR" INDICATES FEW OR NO CLOUDS BELOW 12,000 FEET WITH NO
SIGNIFICANT WEATHER AND OR OBSTRUCTIONS TO VISIBILITY.


SDZ038>040-050-052>070-212000-
SOUTHEAST SOUTH DAKOTA

CITY           SKY/WX    TMP DP  RH WIND       PRES   REMARKS
CHAMBERLAIN    SUNNY     79  39  23 S20G31    29.88F
HURON          SUNNY     77  43  29 S15G23    29.90F
MADISON        FAIR      72  41  33 S14G26    29.99F
MITCHELL       SUNNY     79  44  28 S16       29.93F
SIOUX FALLS    SUNNY     72  44  36 S14G23    30.00F
WINNER         FAIR      81  37  20 S30G40    29.88F
YANKTON        SUNNY     75  46  35 S10G16    29.98F
$$

MNZ071-072-080-081-089-090-097-098-212000-
SOUTHWEST MINNESOTA

CITY           SKY/WX    TMP DP  RH WIND       PRES   REMARKS
FAIRMONT       SUNNY     63  37  39 S14       30.10F
JACKSON        SUNNY     66  36  32 SE12      30.10S
LUVERNE        SUNNY     72  37  28 S16G22    30.03F
MARSHALL       SUNNY     70  41  35 SE18G24   30.02F
MONTEVIDEO     SUNNY     66  41  39 S18G26    30.04F
PIPESTONE      SUNNY     72  37  28 S17G23    30.02F
REDWOOD FALLS  SUNNY     65  40  39 SE17      30.07F
TRACY          SUNNY     69  42  37 SE16G22   30.05F
WINDOM         SUNNY     66  39  37 SE12      30.08F
WORTHINGTON    SUNNY     66  41  39 S10G18    30.07F
$$

IAZ001>003-012>014-020>022-031-032-NEZ013-014-SDZ071-212000-
NORTHWEST IOWA

CITY           SKY/WX    TMP DP  RH WIND       PRES   REMARKS
CHEROKEE       SUNNY     70  42  35 S9        30.06F
DENISON        SUNNY     72  39  30 S7G13     30.06F
ESTHERVILLE    SUNNY     65  41  41 S13G20    30.09F
LE MARS        SUNNY     73  41  31 S18       30.04F
ORANGE CITY    SUNNY     73  36  25 S9G17     30.04F
SHELDON        SUNNY     72  41  33 S14       30.04F
SIOUX CITY     SUNNY     74  42  31 S12       30.04F
SPENCER        SUNNY     68  43  40 SE14      30.08F
STORM LAKE     SUNNY     68  41  37 S12G17    30.09F
$$

ABBREVIATIONS USED IN REMARKS
   TC - TEMPERATURE IN CELSIUS
  WCI - WIND CHILL INDEX
   HX - HEAT INDEX
  VSB - VISIBILITY




USA.gov is the U.S. government's official web portal to all federal, state and local government web resources and services.